[[{"header":{"parameterUnit":"m.s-1","parameterCategory":1,"la1":30.2991,"la2":30.254,"lo1":-89.0895,"lo2":-89.0444,"dy":0.0017,"dx":0.0017,"nx":28,"ny":28,"refTime":"2024-06-10T09:00:00:Z","depth":0,"parameterNumber":2,"parameterNumberName":"U-component_of_WINDS"},"data":[0,0,0,0,0,0,0,0,0,0,0,0,0,0,0,0,0,0,0,0,0,0,0,0,0,0,0,0,0,0,0,0,0,0,0,0,0,0,0,0,0,0,0,0,0,0,0,0,0,0,0,0,0,0,0,0,0,0,4.4201,4.4203,0,4.4366,4.4367,4.4369,4.4334,4.433,4.4327,4.4324,4.4494,4.4502,4.4509,0,0,0,0,0,0,0,0,0,0,0,0,0,4.3855,4.3862,4.4201,4.4203,4.4205,4.4365,4.4368,4.437,4.4334,4.433,4.4327,4.4323,4.4492,4.4501,4.451,0,0,0,0,0,0,0,0,0,0,0,0,0,4.4011,4.3864,4.42,4.4206,4.4208,4.4365,4.4368,4.437,4.4335,4.433,4.4326,4.4321,4.4489,4.45,4.4511,4.4672,0,0,4.4545,4.4549,0,0,0,0,0,0,0,0,4.4003,4.4024,4.4203,4.4206,4.4209,4.4324,4.4308,4.4472,4.4336,4.4287,4.4324,4.4319,4.4442,4.4456,4.4497,4.468,4.4687,4.4546,4.4552,4.4557,4.456,0,0,0,0,0,0,0,4.3992,4.4017,4.4266,4.4206,4.4209,4.4201,4.4218,4.4339,4.4388,4.4291,4.4289,4.4309,4.4442,4.4487,4.4501,4.469,4.4545,4.4555,4.4562,4.4566,4.5012,4.5017,0,0,0,0,0,0,4.3978,4.4008,4.4261,4.4271,4.4092,4.4211,4.423,4.4292,4.4387,4.4397,4.4312,4.4306,4.447,4.4488,4.4507,4.4701,4.4557,4.4567,4.4574,4.5007,4.5013,4.5019,0,0,0,0,0,0,4.3971,4.4001,4.4254,4.4139,4.417,4.4222,4.4292,4.4298,4.4342,4.4403,4.4412,4.4349,4.4467,4.4491,4.4631,4.4707,4.4572,4.4583,4.5001,4.5009,4.5016,4.5092,0,0,0,0,0,0,4.3961,4.3999,4.406,4.4141,4.4177,4.4375,4.4296,4.4304,4.4361,4.4355,4.444,4.4449,4.4465,4.4615,4.4642,4.472,4.4591,4.4994,4.5004,4.5013,4.5083,4.5101,4.5117,0,0,0,0,0,4.3949,4.4076,4.4064,4.4094,4.4255,4.438,4.44,4.4416,4.4367,4.443,4.4469,4.4446,4.4694,4.4629,4.466,4.4742,4.4989,4.5001,4.5013,4.5075,4.5097,4.5116,0,0,0,0,0,0,4.4003,4.4086,4.4074,4.423,4.4298,4.4373,4.4452,4.444,4.4523,4.4514,4.453,4.455,4.4692,4.4731,4.4657,4.4903,4.4835,4.4853,4.4872,4.4894,4.491,4.4898,4.46,0,0,0,0,0,4.4033,4.4128,4.4195,4.4326,4.4361,4.4401,4.4456,4.4462,4.4534,4.4562,4.4612,4.4682,4.4775,4.4837,4.4926,4.5088,4.5106,4.516,4.5177,4.5191,4.5206,4.5294,4.5319,4.5057,4.5057,4.5057,0,0,4.4096,4.4153,4.4212,4.4338,4.4392,4.4489,4.4425,4.4531,4.4604,4.4578,4.4713,4.4752,4.4831,4.4983,4.5052,4.502,4.5282,4.5206,4.5216,4.5224,4.5309,4.5334,4.5356,4.5065,4.5064,4.5062,0,0,4.4261,4.4314,4.4428,4.4483,4.4565,4.4591,4.4618,4.4696,4.4721,4.4856,4.4839,4.4925,4.5086,4.5144,4.5194,4.538,4.5363,4.5409,4.5498,4.5584,4.5605,4.5623,4.5689,4.5713,4.5424,4.5425,4.5425,0,4.4329,4.4475,4.4489,4.4597,4.4653,4.4634,4.475,4.4803,4.491,4.4949,4.4912,4.5113,4.5165,4.533,4.5375,4.5417,4.5448,4.5399,4.5601,4.5619,4.5636,4.57,4.5724,4.543,4.5429,4.5429,4.5428,0,4.4554,4.4656,4.4739,4.4842,4.4907,4.5019,4.505,4.5115,4.5116,4.5146,4.5284,4.5346,4.5447,4.5487,4.5489,4.5652,4.5629,4.5596,4.5528,4.5666,4.5726,4.575,4.5437,4.5435,4.5434,4.5432,0,0,4.4757,4.4867,4.4897,4.4943,4.5032,4.5111,4.5222,4.5321,4.5376,4.545,4.5543,4.568,4.565,4.5707,4.5715,4.5791,4.5934,4.5748,4.5751,4.578,4.6117,4.614,4.6168,4.5923,4.5928,4.5931,4.611,0,4.4929,4.5124,4.514,4.5315,4.5409,4.5393,4.5489,4.5554,4.5585,4.5669,4.5704,4.58,4.5753,4.5788,4.5862,4.5901,4.6001,4.5888,4.6009,4.6014,4.5989,4.6199,4.6225,4.639,4.6133,4.6137,4.614,0,4.5156,4.5237,4.5421,4.5497,4.5537,4.5623,4.5715,4.5796,4.5869,4.5886,4.595,4.5948,4.6062,4.599,4.6147,4.607,4.6121,4.6148,4.6154,4.6166,4.6084,4.6216,4.6443,4.6468,4.6177,4.6174,4.6171,0,4.5285,4.544,4.557,4.561,4.5702,4.5763,4.5804,4.5873,4.5931,4.6012,4.605,4.6143,4.6193,4.6266,4.6289,4.6235,4.6445,4.6375,4.6462,4.6462,4.6507,4.6503,4.6745,4.6541,4.654,4.654,4.6539,0,4.5475,4.5588,4.5629,4.5709,4.5836,4.5853,4.5978,4.6016,4.6077,4.6164,4.6156,4.6238,4.6264,4.6351,4.637,4.6497,4.652,4.6537,4.6541,4.6538,4.6535,4.657,4.6559,4.6546,4.6545,4.6544,4.6543,0,4.564,4.5672,4.5812,4.5887,4.5909,4.5999,4.6063,4.614,4.617,4.628,4.6307,4.6354,4.6455,4.6485,4.6608,4.6621,4.6769,4.6763,4.6744,4.6744,4.6829,4.682,4.7101,4.7138,4.691,4.6912,4.6914,0,4.5759,4.5845,4.593,4.5987,4.603,4.6124,4.6183,4.6204,4.6266,4.6356,4.6423,4.6523,4.6604,4.6767,4.6812,4.6905,4.6901,4.6993,4.6915,4.6909,4.6901,4.6895,4.6904,4.7007,4.7009,4.7011,4.7013,0,4.5966,4.5978,4.6063,4.6155,4.6226,4.63,4.637,4.6418,4.6449,4.6519,4.6623,4.6686,4.681,4.691,4.7005,4.7047,4.7036,4.7037,4.7062,4.7059,4.7045,4.7053,4.6783,4.7031,4.7029,4.7027,4.7027,4.7026,4.6111,4.6187,4.6258,4.6354,4.6409,4.6475,4.6551,4.659,4.6677,4.678,4.6787,4.6899,4.697,4.7096,4.7143,4.7231,4.7204,4.7241,4.725,4.7258,4.7264,4.7031,4.7249,4.7248,4.7248,4.7247,4.7247,0,4.6318,4.6363,4.6451,4.6549,4.6625,4.6607,4.6684,4.6748,4.6847,4.6914,4.6994,4.7113,4.7209,4.7262,4.7358,4.7418,4.7415,4.7442,4.7438,4.7447,4.7283,4.7252,4.7443,4.7443,4.7443,4.7443,4.7443,4.7443,4.6434,4.6562,4.6581,4.6736,4.678,4.689,4.6935,4.6996,4.705,4.7182,4.7262,4.7296,4.7357,4.7457,4.7545,4.7558,4.7593,4.7624,4.7634,4.7479,4.7459,4.744,4.741,4.7632,4.7632,4.779,4.7792,4.7793]},{"header":{"parameterUnit":"m.s-1","parameterCategory":1,"la1":30.2991,"la2":30.254,"lo1":-89.0895,"lo2":-89.0444,"dy":0.0017,"dx":0.0017,"nx":28,"ny":28,"refTime":"2024-06-10T09:00:00:Z","depth":0,"parameterNumber":3,"parameterNumberName":"V-component_of_WINDS"},"data":[0,0,0,0,0,0,0,0,0,0,0,0,0,0,0,0,0,0,0,0,0,0,0,0,0,0,0,0,0,0,0,0,0,0,0,0,0,0,0,0,0,0,0,0,0,0,0,0,0,0,0,0,0,0,0,0,0,0,-0.2097,-0.2097,0,-0.2089,-0.2089,-0.2089,-0.2075,-0.2075,-0.2075,-0.2074,-0.2066,-0.2066,-0.2066,0,0,0,0,0,0,0,0,0,0,0,0,0,-0.2104,-0.2104,-0.2098,-0.2097,-0.2097,-0.2089,-0.2089,-0.2088,-0.2075,-0.2075,-0.2075,-0.2074,-0.2066,-0.2066,-0.2066,0,0,0,0,0,0,0,0,0,0,0,0,0,-0.2099,-0.2104,-0.2098,-0.209,-0.2089,-0.2089,-0.2089,-0.2088,-0.2075,-0.2075,-0.2075,-0.2074,-0.2066,-0.2066,-0.2066,-0.2073,0,0,-0.2066,-0.2066,0,0,0,0,0,0,0,0,-0.2099,-0.2098,-0.2091,-0.209,-0.2089,-0.2083,-0.2088,-0.2083,-0.2075,-0.208,-0.2074,-0.2074,-0.2072,-0.2071,-0.207,-0.2072,-0.2072,-0.2066,-0.2066,-0.2066,-0.2066,0,0,0,0,0,0,0,-0.2099,-0.2099,-0.2094,-0.2091,-0.209,-0.2087,-0.2086,-0.2087,-0.2078,-0.208,-0.2079,-0.2078,-0.2071,-0.207,-0.207,-0.2072,-0.2066,-0.2066,-0.2066,-0.2066,-0.208,-0.2081,0,0,0,0,0,0,-0.2101,-0.2099,-0.2094,-0.2094,-0.2093,-0.2087,-0.2086,-0.2085,-0.2078,-0.2077,-0.2078,-0.2078,-0.2071,-0.207,-0.207,-0.2078,-0.2066,-0.2066,-0.2066,-0.208,-0.208,-0.2081,0,0,0,0,0,0,-0.2101,-0.21,-0.2095,-0.2096,-0.2095,-0.2087,-0.2087,-0.2085,-0.2084,-0.2077,-0.2075,-0.2079,-0.207,-0.207,-0.2072,-0.2077,-0.2066,-0.2066,-0.2079,-0.208,-0.2081,-0.2094,0,0,0,0,0,0,-0.2101,-0.2101,-0.2103,-0.2096,-0.2095,-0.2097,-0.2087,-0.2085,-0.2084,-0.2083,-0.2077,-0.2076,-0.207,-0.2072,-0.2072,-0.2077,-0.2066,-0.2079,-0.208,-0.208,-0.2093,-0.2095,-0.2097,0,0,0,0,0,-0.2101,-0.2107,-0.2103,-0.2102,-0.2098,-0.2097,-0.2097,-0.209,-0.2085,-0.2087,-0.2083,-0.2076,-0.2077,-0.2073,-0.2072,-0.2077,-0.2078,-0.2079,-0.208,-0.2092,-0.2095,-0.2097,0,0,0,0,0,0,-0.2114,-0.2106,-0.2101,-0.2105,-0.2102,-0.2095,-0.2098,-0.2092,-0.2091,-0.209,-0.2081,-0.208,-0.2084,-0.2081,-0.2076,-0.2084,-0.2077,-0.2078,-0.2086,-0.2088,-0.209,-0.2091,-0.2066,0,0,0,0,0,-0.2117,-0.2117,-0.211,-0.2114,-0.2113,-0.2106,-0.2105,-0.21,-0.2097,-0.2096,-0.2091,-0.2088,-0.2088,-0.2088,-0.2087,-0.2093,-0.2092,-0.2096,-0.2098,-0.21,-0.21,-0.2104,-0.2106,-0.2084,-0.2084,-0.2084,0,0,-0.2123,-0.2119,-0.212,-0.2116,-0.2113,-0.2114,-0.2105,-0.2106,-0.2106,-0.2096,-0.2098,-0.2095,-0.2091,-0.2096,-0.2097,-0.2093,-0.2107,-0.2101,-0.2102,-0.2102,-0.2105,-0.2107,-0.2109,-0.2084,-0.2084,-0.2084,0,0,-0.2135,-0.2132,-0.2135,-0.2133,-0.2129,-0.2124,-0.2125,-0.2119,-0.2117,-0.2119,-0.2112,-0.2112,-0.2112,-0.211,-0.2109,-0.2122,-0.2116,-0.2122,-0.2131,-0.2135,-0.2137,-0.2138,-0.2143,-0.2145,-0.2123,-0.2123,-0.2123,0,-0.2144,-0.2144,-0.2137,-0.2139,-0.2138,-0.2129,-0.2132,-0.2131,-0.2127,-0.2126,-0.2122,-0.2122,-0.2119,-0.2123,-0.2126,-0.2126,-0.2127,-0.2122,-0.2137,-0.2138,-0.214,-0.2144,-0.2146,-0.2124,-0.2124,-0.2123,-0.2123,0,-0.2155,-0.2156,-0.2159,-0.2156,-0.2155,-0.2158,-0.2151,-0.2152,-0.2147,-0.2144,-0.2146,-0.2143,-0.2141,-0.2142,-0.2137,-0.2146,-0.2144,-0.2138,-0.213,-0.2143,-0.2147,-0.2149,-0.2125,-0.2124,-0.2124,-0.2124,0,0,-0.2174,-0.2168,-0.2169,-0.2168,-0.2163,-0.2164,-0.2166,-0.2165,-0.2166,-0.2164,-0.2166,-0.2167,-0.2162,-0.2161,-0.2156,-0.2159,-0.2171,-0.2154,-0.2153,-0.2157,-0.218,-0.2185,-0.2187,-0.2167,-0.2167,-0.2167,-0.2181,0,-0.2185,-0.2189,-0.2183,-0.2188,-0.2189,-0.2181,-0.2184,-0.2182,-0.2179,-0.2179,-0.2176,-0.2176,-0.217,-0.2169,-0.2172,-0.2169,-0.2175,-0.2168,-0.2169,-0.2169,-0.217,-0.2189,-0.2193,-0.2206,-0.2182,-0.2183,-0.2183,0,-0.2198,-0.2197,-0.2203,-0.2199,-0.2199,-0.2201,-0.2201,-0.2201,-0.2199,-0.2197,-0.2196,-0.2191,-0.2194,-0.2186,-0.2191,-0.2186,-0.2186,-0.2185,-0.2185,-0.2185,-0.2177,-0.2189,-0.221,-0.2212,-0.2185,-0.2185,-0.2185,0,-0.2212,-0.2212,-0.2215,-0.2215,-0.221,-0.2212,-0.221,-0.2208,-0.2208,-0.2207,-0.2207,-0.2207,-0.2207,-0.2208,-0.2203,-0.2198,-0.2208,-0.22,-0.2206,-0.2206,-0.2208,-0.2208,-0.2229,-0.2209,-0.2209,-0.2209,-0.2209,0,-0.2225,-0.2229,-0.2221,-0.2224,-0.2228,-0.2222,-0.2226,-0.2224,-0.2222,-0.2224,-0.2217,-0.2219,-0.2212,-0.2214,-0.221,-0.2215,-0.2215,-0.2213,-0.2212,-0.2214,-0.2214,-0.2214,-0.2213,-0.2209,-0.2209,-0.2209,-0.2209,0,-0.224,-0.2236,-0.2239,-0.2235,-0.2234,-0.2237,-0.2234,-0.2236,-0.2233,-0.2236,-0.2236,-0.2231,-0.2233,-0.2228,-0.2229,-0.2226,-0.2233,-0.2231,-0.2234,-0.2233,-0.224,-0.2239,-0.2261,-0.2264,-0.2242,-0.2242,-0.2242,0,-0.2249,-0.2252,-0.2248,-0.2249,-0.2248,-0.2249,-0.2249,-0.2244,-0.2244,-0.2243,-0.2245,-0.2247,-0.2247,-0.225,-0.2247,-0.2248,-0.2245,-0.2253,-0.2245,-0.2247,-0.2246,-0.2246,-0.2246,-0.2255,-0.2255,-0.2255,-0.2255,0,-0.2265,-0.2263,-0.2263,-0.2263,-0.2264,-0.2264,-0.2263,-0.2264,-0.2258,-0.226,-0.2261,-0.2262,-0.2263,-0.2265,-0.2265,-0.2264,-0.2259,-0.2258,-0.2259,-0.2261,-0.2263,-0.2262,-0.2238,-0.2257,-0.2257,-0.2257,-0.2257,-0.2257,-0.2277,-0.228,-0.2278,-0.2279,-0.2278,-0.2278,-0.228,-0.2277,-0.2279,-0.2279,-0.2276,-0.2279,-0.2278,-0.2278,-0.2277,-0.2279,-0.2276,-0.2278,-0.2279,-0.2279,-0.2281,-0.2263,-0.2279,-0.2279,-0.2279,-0.2279,-0.2279,0,-0.2293,-0.2292,-0.2293,-0.2293,-0.2294,-0.2289,-0.2289,-0.229,-0.2292,-0.2292,-0.2293,-0.2295,-0.2297,-0.2294,-0.2296,-0.2298,-0.2296,-0.2299,-0.2298,-0.2298,-0.2283,-0.2282,-0.23,-0.23,-0.23,-0.23,-0.23,-0.23,-0.2302,-0.2306,-0.2304,-0.2308,-0.2306,-0.2309,-0.2309,-0.2309,-0.2308,-0.2312,-0.2313,-0.2311,-0.231,-0.2312,-0.2313,-0.2313,-0.2314,-0.2317,-0.2316,-0.2301,-0.2299,-0.2297,-0.2296,-0.2317,-0.2317,-0.2331,-0.2331,-0.2331]}]]